TimeCET,TemperatureF,Dew PointF,Humidity,Sea Level PressureIn,VisibilityMPH,Wind Direction,Wind SpeedMPH,Gust SpeedMPH,PrecipitationIn,Events,Conditions,WindDirDegrees,DateUTC
12:20 AM,32.0,30.2,93,30.24,0.6,NE,9.2,-,N/A,Snow,Light Snow,50,2013-02-25 23:20:00
12:50 AM,32.0,32.0,100,30.24,0.7,ENE,10.4,-,N/A,Snow,Light Snow,60,2013-02-25 23:50:00
1:00 AM,33,31,90,30.30,1,ENE,11.2,,,Snow,Light Snow,60,2013-02-26 00:00:00
1:20 AM,32.0,32.0,100,30.27,0.9,ENE,10.4,-,N/A,Snow,Light Snow,60,2013-02-26 00:20:00
1:50 AM,33.8,32.0,93,30.27,1.4,ENE,9.2,-,N/A,,Mostly Cloudy,60,2013-02-26 00:50:00
2:20 AM,33.8,32.0,93,30.27,1.7,ENE,8.1,-,N/A,,Mostly Cloudy,60,2013-02-26 01:20:00
2:50 AM,33.8,32.0,93,30.27,2.2,ENE,8.1,-,N/A,,Mostly Cloudy,60,2013-02-26 01:50:00
3:20 AM,33.8,32.0,93,30.30,-9999.0,NE,6.9,-,N/A,,Mostly Cloudy,50,2013-02-26 02:20:00
3:50 AM,33.8,32.0,93,30.30,3.1,ENE,4.6,-,N/A,,Mostly Cloudy,70,2013-02-26 02:50:00
4:00 AM,34,31,86,30.33,3,ENE,4.5,,,,Mist,70,2013-02-26 03:00:00
4:20 AM,33.8,32.0,93,30.30,3.1,ENE,8.1,-,N/A,,Mostly Cloudy,60,2013-02-26 03:20:00
4:50 AM,33.8,32.0,93,30.30,3.1,ENE,8.1,-,N/A,,Mostly Cloudy,60,2013-02-26 03:50:00
5:20 AM,32.0,30.2,93,30.30,2.8,ENE,8.1,-,N/A,,Mostly Cloudy,60,2013-02-26 04:20:00
5:50 AM,30.2,28.4,93,30.30,1.0,NE,6.9,-,N/A,,Mostly Cloudy,40,2013-02-26 04:50:00
6:20 AM,30.2,28.4,93,30.33,1.5,NE,8.1,-,N/A,,Scattered Clouds,50,2013-02-26 05:20:00
6:50 AM,30.2,30.2,100,30.33,1.5,East,3.5,18.4,N/A,,Scattered Clouds,80,2013-02-26 05:50:00
7:00 AM,31,29,91,30.38,1,East,4.5,,,,Mist,80,2013-02-26 06:00:00
7:20 AM,30.2,28.4,93,30.36,0.1,NE,6.9,-,N/A,Fog,Light Freezing Fog,40,2013-02-26 06:20:00
7:50 AM,30.2,28.4,93,30.36,0.1,NE,6.9,-,N/A,Fog,Light Freezing Fog,40,2013-02-26 06:50:00
8:20 AM,32.0,28.4,87,30.36,0.9,NE,6.9,-,N/A,,Mostly Cloudy,40,2013-02-26 07:20:00
8:50 AM,32.0,30.2,93,30.39,0.9,NE,9.2,-,N/A,,Mostly Cloudy,40,2013-02-26 07:50:00
9:20 AM,32.0,30.2,93,30.39,1.9,ENE,8.1,-,N/A,,Mostly Cloudy,60,2013-02-26 08:20:00
9:50 AM,32.0,30.2,93,30.39,2.8,NE,5.8,-,N/A,,Mostly Cloudy,40,2013-02-26 08:50:00
10:00 AM,33,30,84,30.43,3,NE,6.7,,,,Mist,40,2013-02-26 09:00:00
10:20 AM,33.8,30.2,87,30.39,1.9,NE,5.8,-,N/A,,Mostly Cloudy,40,2013-02-26 09:20:00
10:50 AM,33.8,30.2,87,30.39,4.3,NE,6.9,-,N/A,,Mostly Cloudy,50,2013-02-26 09:50:00
11:20 AM,35.6,30.2,81,30.42,5.6,NE,9.2,-,N/A,,Scattered Clouds,50,2013-02-26 10:20:00
11:50 AM,35.6,30.2,81,30.42,5.6,ENE,10.4,-,N/A,,Scattered Clouds,60,2013-02-26 10:50:00
12:20 PM,35.6,30.2,81,30.42,3.7,NE,8.1,-,N/A,,Partly Cloudy,40,2013-02-26 11:20:00
12:50 PM,35.6,30.2,81,30.42,5.0,NE,11.5,-,N/A,,Partly Cloudy,50,2013-02-26 11:50:00
1:00 PM,36,30,72,30.46,5,NE,11.2,,,,Partly Cloudy,50,2013-02-26 12:00:00
1:20 PM,35.6,30.2,81,30.42,5.0,ENE,11.5,-,N/A,,Mostly Cloudy,60,2013-02-26 12:20:00
1:50 PM,37.4,30.2,75,30.42,6.2,NE,12.7,-,N/A,,Mostly Cloudy,50,2013-02-26 12:50:00
2:20 PM,37.4,30.2,75,30.39,6.2,NE,11.5,-,N/A,,Mostly Cloudy,40,2013-02-26 13:20:00
2:50 PM,37.4,30.2,75,30.42,6.2,ENE,11.5,-,N/A,,Mostly Cloudy,60,2013-02-26 13:50:00
3:20 PM,37.4,30.2,75,30.42,5.6,NNE,8.1,-,N/A,,Mostly Cloudy,30,2013-02-26 14:20:00
3:50 PM,37.4,32.0,81,30.42,4.3,NE,8.1,-,N/A,,Mostly Cloudy,40,2013-02-26 14:50:00
4:00 PM,37,32,74,30.45,4,NE,8.9,,,,Mostly Cloudy,40,2013-02-26 15:00:00
4:20 PM,37.4,33.8,87,30.39,3.1,NNE,5.8,-,N/A,,Mostly Cloudy,30,2013-02-26 15:20:00
4:50 PM,37.4,33.8,87,30.39,2.8,NNE,8.1,-,N/A,,Mostly Cloudy,30,2013-02-26 15:50:00
5:20 PM,35.6,33.8,93,30.39,2.2,NE,9.2,-,N/A,,Mostly Cloudy,40,2013-02-26 16:20:00
5:50 PM,35.6,33.8,93,30.39,1.6,NNE,9.2,-,N/A,,Mostly Cloudy,30,2013-02-26 16:50:00
6:20 PM,35.6,33.8,93,30.42,1.7,NNE,6.9,-,N/A,,Mostly Cloudy,30,2013-02-26 17:20:00
6:50 PM,35.6,33.8,93,30.42,1.7,NNE,8.1,-,N/A,,Mostly Cloudy,20,2013-02-26 17:50:00
7:00 PM,36,34,89,30.45,2,NNE,8.9,,,,Mist,20,2013-02-26 18:00:00
7:20 PM,35.6,33.8,93,30.42,1.7,NNE,8.1,-,N/A,,Mostly Cloudy,20,2013-02-26 18:20:00
7:50 PM,35.6,33.8,93,30.42,1.2,NNE,9.2,-,N/A,,Mostly Cloudy,20,2013-02-26 18:50:00
8:20 PM,35.6,33.8,93,30.42,0.9,North,6.9,-,N/A,,Mostly Cloudy,10,2013-02-26 19:20:00
8:50 PM,35.6,33.8,93,30.42,0.8,NNE,9.2,-,N/A,,Mostly Cloudy,30,2013-02-26 19:50:00
9:20 PM,33.8,33.8,100,30.42,0.8,NNE,9.2,-,N/A,,Mostly Cloudy,20,2013-02-26 20:20:00
9:50 PM,33.8,33.8,100,30.45,0.5,NNE,8.1,-,N/A,Fog,Fog,20,2013-02-26 20:50:00
10:00 PM,34,34,98,30.48,0,NNE,6.7,,,Fog,Partial Fog,20,2013-02-26 21:00:00
10:20 PM,33.8,33.8,100,30.42,0.4,North,6.9,-,N/A,Fog,Fog,10,2013-02-26 21:20:00
10:50 PM,33.8,33.8,100,30.42,0.2,North,5.8,-,N/A,Fog,Fog,360,2013-02-26 21:50:00
11:20 PM,33.8,33.8,100,30.42,0.2,North,9.2,-,N/A,Fog,Fog,10,2013-02-26 22:20:00
11:50 PM,33.8,33.8,100,30.42,0.2,NNE,9.2,-,N/A,Fog,Fog,20,2013-02-26 22:50:00